Regional Weather Roundup
Issued by NWS

Home | Current Version | Previous Version | Text Only | Print | Product List | Glossary On
Versions: 1 2 3 4 5 6 7 8 9 10 11 12 13 14 15 16 17 18 19 20 21 22 23 24 25 26 27 28 29 30 31 32 33 34 35 36 37 38 39 40 41 42 43 44 45 46 47 48 49 50
000
ASUS43 KMKX 281200
RWRWI

WISCONSIN REGIONAL WEATHER ROUNDUP
NATIONAL WEATHER SERVICE MILWAUKEE/SULLIVAN WI
700 AM CDT WED JUN 28 2017

NOTE: "FAIR" INDICATES FEW OR NO CLOUDS BELOW 12,000 FEET WITH NO
SIGNIFICANT WEATHER AND/OR OBSTRUCTIONS TO VISIBILITY.

WIZ001-002-006>008-014>016-023>028-281300-
NORTHWEST WISCONSIN

CITY           SKY/WX    TMP DP  RH WIND       PRES   REMARKS
SUPERIOR ARPT  NOT AVBL
ASHLAND        CLOUDY    59  49  69 CALM      29.74F
6HR MIN TEMP:  48; 6HR MAX TEMP:  60;

HAYWARD        CLOUDY    59  47  64 CALM      29.72F
6HR MIN TEMP:  58; 6HR MAX TEMP:  61;

SIREN          CLOUDY    64  49  59 SE5       29.68F
CUMBERLAND     CLOUDY    55  46  71 SE6       29.71F
RICE LAKE      CLOUDY    60  49  66 SE9       29.73F
6HR MIN TEMP:  59; 6HR MAX TEMP:  61;

CHETEK         CLOUDY    59  50  71 SE7       29.73F
LADYSMITH      CLOUDY    62  49  63 SE6       29.77S
6HR MIN TEMP:  57; 6HR MAX TEMP:  62;

EAU CLAIRE     NOT AVBL
MENOMONIE      CLOUDY    62  51  68 E9        29.70F
6HR MIN TEMP:  59; 6HR MAX TEMP:  63;

NEW RICHMOND   DRIZZLE   60  55  84 S10       29.67F
OSCEOLA        RAIN      61  61 100 SE10G16   29.68F
$$

WIZ003>005-009-010-017-018-281300-
NORTH CENTRAL WISCONSIN

CITY           SKY/WX    TMP DP  RH WIND       PRES   REMARKS
MANITOWISH WTR CLOUDY    58  50  75 S8        29.80F
ARBOR VITAE    CLOUDY    59  49  67 S8        29.81F
WOODRUFF       CLOUDY    59  49  67 S8        29.81F
RHINELANDER    CLOUDY    57  49  74 S6        29.83F
6HR MIN TEMP:  51; 6HR MAX TEMP:  58;

EAGLE RIVER    CLOUDY    54  46  73 S5        29.83F
LAND O LAKES   CLOUDY    57  48  73 S3        29.85F
6HR MIN TEMP:  47; 6HR MAX TEMP:  57; 6HR PCP:  0.01;

PHILLIPS       CLOUDY    59  49  70 S8        29.77F
6HR MIN TEMP:  55; 6HR MAX TEMP:  59;

TOMAHAWK       NOT AVBL
MEDFORD        CLOUDY    56  48  74 SE8       29.79F
MERRILL        CLOUDY    56  50  79 S5        29.83S
6HR MIN TEMP:  46; 6HR MAX TEMP:  59;

$$

WIZ029-030-035-036-043>047-281300-
CENTRAL WISCONSIN

CITY           SKY/WX    TMP DP  RH WIND       PRES   REMARKS
WAUSAU           N/A    N/A N/A N/A MISG      29.82F
MOSINEE        NOT AVBL
MARSHFIELD     CLOUDY    58  49  72 S10       29.81R
6HR MIN TEMP:  52; 6HR MAX TEMP:  58;

STEVENS POINT  CLOUDY    59  47  65 S10       29.83F
WAUPACA        CLOUDY    60  52  75 SE7       29.87R
6HR MIN TEMP:  51; 6HR MAX TEMP:  60;

WAUTOMA        NOT AVBL
WISC RAPIDS    CLOUDY    62  50  64 S8        29.83R
6HR MIN TEMP:  52; 6HR MAX TEMP:  62;

CAMP DOUGLAS   NOT AVBL
$$

WIZ011>013-019>022-031-037>040-048>050-281300-
NORTHEAST WISCONSIN

CITY           SKY/WX    TMP DP  RH WIND       PRES   REMARKS
ANTIGO         CLOUDY    53  48  83 S7        29.85F
SHAWANO        CLOUDY    59  50  72 S6        29.86F
OCONTO         MOSUNNY   60  51  71 SE3       29.88F
STURGEON BAY     N/A     61  49  64 S10       29.90F
6HR MIN TEMP:  57; 6HR MAX TEMP:  61;

GREEN BAY      CLOUDY    61  52  72 S9        29.88F
6HR MIN TEMP:  54; 6HR MAX TEMP:  61;

MANITOWOC      NOT AVBL
APPLETON       PTSUNNY   63  46  55 S10       29.87F
CLINTONVILLE   MOSUNNY   59  50  72 S8        29.86F
OSHKOSH        CLOUDY    60  50  69 S8        29.88F
6HR MIN TEMP:  51; 6HR MAX TEMP:  60;

$$

WIZ032>034-041-042-053>061-281300-
SOUTHWEST WISCONSIN

CITY           SKY/WX    TMP DP  RH WIND       PRES   REMARKS
LA CROSSE      CLOUDY    70  56  61 S15G24    29.78R
6HR MIN TEMP:  68; 6HR MAX TEMP:  72;

SPARTA         CLOUDY    64  52  63 S8        29.80R
VIROQUA        CLOUDY    63  53  68 S10       29.82R
BOSCOBEL       TSTM      63  57  81 S5        29.85R
6HR MIN TEMP:  63; 6HR MAX TEMP:  67; 6HR PCP:  0.02;

PRAIRIE DU CHI HVY RAIN  62  59  89 S7        29.86R
PLATTEVILLE    CLOUDY    65  56  73 S12       29.88R
$$

WIZ056-057-062-063-064-067-068-281300-
SOUTH CENTRAL WISCONSIN

CITY           SKY/WX    TMP DP  RH WIND       PRES   REMARKS
REEDSBURG      CLOUDY    63  52  66 S9        29.84S
BARABOO/DELLS  CLOUDY    62  49  62 S14       29.85S
LONE ROCK      NOT AVBL
MINERAL POINT  CLOUDY    63  54  72 S12G18    29.87R
MADISON        CLOUDY    63  50  62 S12       29.89R
6HR MIN TEMP:  59; 6HR MAX TEMP:  63;

MIDDLETON      CLOUDY    63  50  62 S9G17     29.87F
WATERTOWN      NOT AVBL
MONROE         CLOUDY    61  50  67 S14G20    29.90R
JANESVILLE     PTSUNNY   64  50  59 S13       29.90F
$$

WIZ051-052-058>065-066-070>072-281300-
SOUTHEAST WISCONSIN

CITY           SKY/WX    TMP DP  RH WIND       PRES   REMARKS
MILWAUKEE      CLOUDY    63  50  62 S10       29.95F
6HR MIN TEMP:  57; 6HR MAX TEMP:  63;

WAUKESHA       SUNNY     57  48  72 S9        29.95F
MILWAUKEE/TIMM CLOUDY    61  45  55 S9        29.95F
RACINE         CLOUDY    62  49  62 S10       29.98S
6HR MIN TEMP:  56; 6HR MAX TEMP:  62;

KENOSHA        CLOUDY    62  49  62 S9        29.96F
6HR MIN TEMP:  56; 6HR MAX TEMP:  62;

FOND DU LAC    CLOUDY    62  48  60 S10       29.89F
6HR MIN TEMP:  56; 6HR MAX TEMP:  62;

SHEBOYGAN      CLOUDY    60  52  74 S10       29.93F
6HR MIN TEMP:  49; 6HR MAX TEMP:  60;

WEST BEND      CLOUDY    59  48  67 S9        29.93F
JUNEAU         CLOUDY    58  49  70 SE9       29.92S
$$

LSZ147-162-281300-
LAKE SUPERIOR

STATION/POSITION TIME  TEMP    WIND        PRES    WAVE
                       AIR SEA DIR/SP/G            HT/PER
                 (UTC) (F)     (DEG/KT/KT) (MB)    (FT/S)
W MID LAKE BUOY  1050   45 39  160/  8/ 10 1008.7F   0
DEVILS ISLAND    1100   60     310/  4/  6 1007.5F
SAXON HARBOR     1140   64     190/  7/ 14 1006.8F
$$

LMZ867-665-643>646-281300-
LAKE MICHIGAN

STATION/POSITION TIME  TEMP    WIND        PRES    WAVE
                       AIR SEA DIR/SP/G            HT/PER
                 (UTC) (F)     (DEG/KT/KT) (MB)    (FT/S)
CHAMBERS ISLAND  1130   65     160/  3/ 11 1012.5F
S GREEN BAY BUOY 1130   65     180/ 14/ 17 1012.3F
N MID LAKE BUOY  1050   58 56  200/ 12/ 16 1014.7R   3/ 5
NORTHPORT PIER   1140   62     170/  3/  6 1013.2F
KEWAUNEE LAKESHO 1130   52     160/  6/  7 1013.1F
SHEBOYGAN LAKESH 1100   55     170/ 13/ 13 1014.0F
PORT WASHINGTON  1130   57     190/  3/  5 1014.6F
ATWATER BUOY     1009   59 55  160/ 10/ 12 1015.0R
MILWAUKEE LAKESH 1130   61     190/ 10/ 12   N/A
S MID LAKE BUOY  1050   63 61  200/ 16/ 17 1016.0R   2/ 4
KENOSHA   LAKESH 1100   61     170/ 10/ 12 1014.6
$$

TC  - TEMPERATURE IN CELSIUS
VSB - VISIBILITY IN STATUTE MILES
WCI - WIND CHILL INDEX
HX  - HEAT INDEX





USA.gov is the U.S. government's official web portal to all federal, state and local government web resources and services.